www.pogodaiklimat.ru

Погода и климат >> Архив погоды >> Туркменистан >> Елетен


ПОГОДА в Елетене

  • Прогноз погоды в Елетене
  • Монитор погоды в Елетене

АРХИВ ПОГОДЫ в Елетене

Время (UTC), дата Ветер
(напр.,м/с)
 
Видим.   Явления Облачность Т
(С)
Тd
(С)
f
(%)
Тe
(С)
Тes
(С)
Комфортность P
(гПа)
Po
(гПа)
Тmin
(С)
Tmax
(С)
R
(мм)
R24
(мм)
S
(см)
03 9.06 ЮВ 2 4000 м 1/0
[Ac lent]
+22.7 +12.5 53 +25 +30 комфорт 1012.8 982.9 +17.6
06 9.06 ЮВ 2 4000 м ясно +34.0 +9.9 23 +33 +51 опасность
солнечного
удара
1011.5 982.6 +17.6
09 9.06 С 4 4000 м 8/0
[Ci fib]
+35.2 +12.5 25 +35 +46 очень
жарко
1010.7 982.0
12 9.06 С 8 2000 м пыльный позёмок 10/0
[Ac trans Ci fib]
+33.2 +11.4 26 +33 +34 жарко 1010.9 982.0
15 9.06 С 4 4000 м 9/0
[Ac trans]
+27.6 +13.6 42 +29 +29 жарко 1013.7 984.2 +35.2
18 9.06 С 2 4000 м 8/0
[Ac trans Ci fib]
+23.6 +12.6 50 +26 +26 жарко 1015.0 985.1 +35.2
21 9.06 С 2 4000 м 4/0
[Ci fib]
+20.6 +14.0 66 +24 +24 комфорт 1015.2 985.0
00 10.06 С 2 4000 м 8/0
[Ac trans]
+18.9 +11.2 61 +20 +20 1016.0 985.6
03 10.06 штиль 0 4000 м 1/0
[Ac trans]
+21.1 +10.5 51 +23 +29 комфорт 1017.3 987.1 +17.6
06 10.06 С 2 4000 м ясно +26.8 +9.2 33 +27 +45 жарко 1017.7 988.0 +17.6
09 10.06 СЗ 4 4000 м ясно +28.7 +9.0 29 +28 +42 жарко 1016.4 986.9
12 10.06 С 2 4000 м ясно +29.4 +9.2 28 +29 +36 жарко 1015.7 986.4
15 10.06 С 2 4000 м ясно +27.9 +10.2 33 +28 +28 жарко 1015.5 986.0 +29.4
18 10.06 С 2 4000 м ясно +21.0 +10.2 50 +23 +23 комфорт 1017.8 987.5 +29.4
21 10.06 С 2 4000 м ясно +17.7 +8.9 56 +18 +18 1018.0 987.4
00 11.06 штиль 0 4000 м ясно +14.9 +8.8 67 +15 +15 1017.9 986.9
03 11.06 С 2 4000 м ясно +20.4 +8.9 48 +22 +27 комфорт 1018.2 987.9 +14.7
06 11.06 СВ 2 4000 м ясно +27.1 +10.2 35 +28 +45 жарко 1017.3 987.7 +14.7
09 11.06 СВ 2 4000 м ясно +28.4 +8.2 28 +28 +47 жарко 1016.0 986.5
12 11.06 С 2 4000 м ясно +29.7 +10.6 31 +30 +37 жарко 1015.0 985.7
15 11.06 СВ 2 4000 м ясно +27.7 +10.9 35 +28 +28 жарко 1014.5 985.0 +29.7
18 11.06 СЗ 2 4000 м ясно +21.2 +9.9 48 +23 +23 комфорт 1015.6 985.4 +29.7
21 11.06 штиль 0 4000 м ясно +17.1 +9.9 63 +17 +17 1015.7 985.0
00 12.06 штиль 0 4000 м ясно +14.9 +9.0 68 +15 +15 1015.2 984.3
03 12.06 С 2 4000 м ясно +20.6 +11.4 56 +23 +28 комфорт 1015.5 985.3 +14.9
06 12.06 СВ 2 4000 м ясно +29.0 +11.3 33 +30 +47 жарко 1013.0 983.7 +14.9
09 12.06 В 2 4000 м ясно +32.4 +11.4 28 +32 +52 опасность
солнечного
удара
1010.6 981.7
12 12.06 В 4 4000 м ясно +33.3 +10.6 25 +33 +38 жарко 1009.0 980.2
15 12.06 СВ 2 4000 м ясно +31.4 +12.3 31 +32 +32 жарко 1008.5 979.5 +33.3
18 12.06 штиль 0 4000 м 3/0
[Ci fib]
+24.0 +10.3 42 +25 +25 комфорт 1009.6 980.0 +33.3
21 12.06 штиль 0 4000 м ясно +20.4 +9.5 50 +22 +22 комфорт 1009.1 979.1
00 13.06 штиль 0 4000 м ясно +15.5 +9.8 69 +15 +15 1009.5 978.9
03 13.06 СВ 2 4000 м ясно +22.6 +9.9 44 +24 +29 комфорт 1009.3 979.5 +15.2
06 13.06 СЗ 2 4000 м ясно +31.2 +10.7 28 +31 +49 жарко 1008.1 979.1 +15.2
09 13.06 ЮВ 2 4000 м ясно +35.0 +11.7 24 +35 +54 опасность
солнечного
удара
1006.6 978.0
12 13.06 С 2 4000 м ясно +35.2 +12.5 25 +35 +43 очень
жарко
1004.6 976.1
15 13.06 С 2 4000 м 3/0
[Ci fib]
+31.0 +13.6 35 +32 +32 жарко 1004.6 975.7 +35.8
18 13.06 СЗ 2 4000 м 4/0
[Ac trans Ci fib]
+22.8 +13.3 55 +26 +26 жарко 1005.4 975.8 +35.8
21 13.06 штиль 0 4000 м 4/0
[Ac trans]
+19.1 +12.3 65 +20 +20 1005.5 975.4
00 14.06 штиль 0 4000 м ясно +17.8 +13.5 76 +18 +18 1005.8 975.6
03 14.06 С 2 4000 м ясно +23.3 +12.7 51 +26 +31 жарко 1006.1 976.5 +16.4
06 14.06 С 2 4000 м ясно +32.0 +13.4 32 +33 +50 жарко 1006.9 978.0 +16.4
09 14.06 СЗ 2 4000 м ясно +35.3 +13.4 27 +36 +55 опасность
солнечного
удара
1005.7 977.2
12 14.06 СЗ 2 4000 м ясно +36.0 +13.0 25 +36 +44 очень
жарко
1005.0 976.6
15 14.06 СЗ 2 4000 м ясно +33.0 +15.1 34 +35 +35 душно 1005.0 976.3 +36.0
18 14.06 СЗ 2 4000 м ясно +23.8 +15.1 58 +27 +27 жарко 1006.6 977.1 +36.0
21 14.06 штиль 0 4000 м ясно +22.3 +13.1 56 +25 +25 комфорт 1006.5 976.7
03 15.06 З 2 4000 м 3/0
[Ac trans]
+23.6 +15.5 60 +27 +30 жарко 1008.2 978.6 +20.8

 

Местоположение метеостанции Елетен (Марыйский велаят, Туркменистан): широта 37.30 долгота 62.42 высота над уровнем моря 259 м.

В архиве по умолчанию представлена погода в Елетене за последнюю неделю. Архивные данные за месяц целиком и за предыдущие месяцы, начиная с января 2011 года, Вы можете получить, выбрав интересующий диапазон дат из раскрывающегося списка и нажав кнопку "Ввод!".


*Определитесь, кто Вы:
робот инопланетянин человек

Внимание! Время в таблицах - всемирное. Для получения местного времени необходимо прибавить поправку, которая равна 5 ч.

Смотрите также архив погоды в соседних городах и на ближайших метеорологических станциях:

Погода в Байрамалы (Ахалский велаят, Туркменистан) (40 км)
Погода в Багтыярлыке (Марыйский велаят, Туркменистан) (93 км)
Погода в Сарагте (Ахалский велаят, Туркменистан) (137 км)
Погода в Серахсе (Иран) (140 км)
Погода в Тагтабазаре (Марыйский велаят, Туркменистан) (157 км)
Погода в Теджене (Ахалский велаят, Туркменистан) (168 км)
Погода в Бурдалыке (Лебапский велаят, Туркменистан) (215 км)
Погода в Туркменабаде (Лебапский велаят, Туркменистан) (223 км)
Погода в Серхетабаде (Марыйский велаят, Туркменистан) (225 км)
Погода в Каке (Ахалский велаят, Туркменистан) (247 км)

Пояснения к столбцам:

Ветер - указаны скорость ветра в м/с - средняя за 10 мин, порывы в срок и между сроками (в фигурных скобках) и направление, откуда дует ветер: С - северный, СВ - северо-восточный, В - восточный, ЮВ - юго-восточный, Ю - южный, ЮЗ - юго-западный, З - западный, СЗ - северо-западный.
Видимость - горизонтальная дальность видимости в метрах или километрах. При видимости от 1 до 10 км при отсутствии осадков обычно наблюдается дымка, при ухудшении видимости до 1 км и менее - туман. В сухую погоду видимость может ухудшаться дымом, пылью или мглою.
Явления - указаны атмосферные явления, наблюдавшиеся в срок или в последний час перед сроком; фигурными скобками обозначены явления, наблюдавшиеся между сроками (за 1-3 часа до срока); квадратными скобками обозначены град или гололедные отложения с указанием их диаметра в мм.
Облачность - указаны через наклонную черту общая и нижняя облачность в баллах и высота нижней границы облаков в метрах; квадратными скобками обозначены формы облаков: Ci - перистые, Cs - перисто-слоистые, Cc - перисто-кучевые, Ac - высококучевые, As - высокослоистые, Sc - слоисто-кучевые, Ns - слоисто-дождевые, Cu - кучевые, Cb - кучево-дождевые. Подробнее классификацию облаков см. в Атласе облаков (PDF).
T - Температура воздуха - температура, измеренная на высоте 2 м над землей.
Td - Температура точки росы - температура, при понижении до которой содержащийся в воздухе водяной пар достигнет насыщения.
f - Относительная влажность воздуха - влажноcть воздуха, измеренная на высоте 2 м над землей.
Te - Эффективная температура - температура, которую ощущает одетый по сезону человек в тени. Характеристика душности погоды. При расчете учитывается влияние влажности воздуха и скорости ветра на теплоощущения человека.
Tes - Эффективная температура на солнце - температура, которую ощущает человек, с поправкой на солнечный нагрев. Характеристика знойности погоды. Зависит от высоты солнца над горизонтом, облачности и скорости ветра. Ночью, в пасмурную погоду, а также при ветре 12 м/с и более поправка равна нулю.
P - Атмосферное давление - приведенное к уровню моря атмосферное давление.
Po - Атмосферное давление - измеренное на уровне метеостанции атмосферное давление.
Tmin - Минимальная температура - минимум температуры воздуха на высоте 2 м над землей.
Tmax - Максимальная температура - максимум температуры воздуха на высоте 2 м над землей.
R - Количество осадков - Количество выпавших осадков за период времени, мм. При наведении курсора мыши на число - период времени, за который выпало указанное количество осадков.
R24 - Количество осадков - Количество выпавших осадков за 24 часа, мм.
S - Снежный покров - Высота снежного покрова, см. При наведении курсора мыши на число - состояние снежного покрова и степень покрытия местности в баллах.